729  
ASUS41 KCLE 221902  
RWRCLE  
OHIO REGIONAL WEATHER ROUNDUP  
NATIONAL WEATHER SERVICE CLEVELAND, OH  
300 PM EDT WED MAY 22 2019  
 
NOTE: "FAIR" INDICATES FEW OR NO CLOUDS BELOW 12,000 FEET WITH NO  
SIGNIFICANT WEATHER AND/OR S TO VISIBILITY
.  
 
OHZ001>008-015>018-024>027-034-035-043-044-222000-  
NORTHWEST OHIO  
 
CITY SKY/WX TMP DP RH WIND PRES REMARKS
 
DEFIANCE FAIR 68 59 73 S8 29.99F  
FINDLAY CLOUDY 70 60 70 S13 30.00F  
TOLEDO EXPRESS CLOUDY 66 56 70 S6 30.01F  
TOLEDO EXEC PTSUNNY 64 57 78 CALM 30.03R  
LIMA CLOUDY 66 59 78 S9 30.03S  

 
 
OHZ009>014-019>023-028>033-038-089-222000-  
NORTHEAST OHIO  
 
CITY SKY/WX TMP DP RH WIND PRES REMARKS
 
CLE-HOPKINS LGT RAIN 72 60 66 S7 30.05F  
CLE-LAKEFRONT LGT RAIN 73 56 54 S8 30.03F  
CUY CO. ARPT CLOUDY 72 55 56 S9 30.07S  
LORAIN-ELYRIA LGT RAIN 68 58 70 NE7 30.03F  
ASHTABULA PTSUNNY 68 53 58 SE6 30.10R  
AKRON-CANTON PTSUNNY 77 58 51 S13 30.07F  
WOOSTER FAIR 75 61 61 S10 30.05F  
MANSFIELD FAIR 75 61 61 SE9 30.04F  
YOUNGSTOWN CLOUDY 72 52 49 S10 30.10F  

 
 
OHZ042-051>053-060>062-070>072-077>081-222000-  
SOUTHWEST OHIO  
 
CITY SKY/WX TMP DP RH WIND PRES REMARKS
 
CINC-COVINGTON CLOUDY 79 66 64 NW10 30.02R  
CINC-LUNKEN FAIR 83 66 56 SW10G23 30.00S  
HAMILTON PTSUNNY 75 65 70 NW7 30.03R  
DAYTON CLOUDY 72 60 66 SW5 30.04S  
WRIGHT-PAT AFB NOT AVBL  
DAYTON GENERAL CLOUDY 74 61 63 NW7 30.02S  
WILMINGTON FAIR 81 66 60 SW13 30.02S  

 
 
OHZ036-037-039>041-045>050-054>059-063>069-073>076-082>088-222000-  
CENTRAL AND SOUTHEAST OHIO  
 
CITY SKY/WX TMP DP RH WIND PRES REMARKS
 
COLUMBUS CLOUDY 84 62 47 S16G23 30.01F  
OSU AIRPORT FAIR 83 62 49 SW15G25 30.00F  
BOLTON FIELD PTSUNNY 82 63 51 SW18G24 30.02F  
RICKENBACK AFB PTSUNNY 82 63 52 S14 30.01F  
NEWARK FAIR 83 63 50 S13G24 30.02F  
MARION FAIR 77 61 57 SW8 30.02F  
LANCASTER FAIR 82 64 54 SW10G21 30.03F  
ZANESVILLE FAIR 85 62 46 S16 30.05F  
NEW PHILLY NOT AVBL  

 
 
 
CLICK HERE TO GO TO PREVIOUS BULLETINS.

The Nexlab OH Page
The Nexlab PA Page Main Text Page